This is the latest recevied weather packets stored in our database for station/object KB9YVI-11. If no packets are shown the sender has not sent any weather packets the latest 1 day(s).
| Time | Temp. | Humidity | Pressure | Rain* | Wind** | Luminosity | Snow |
|---|---|---|---|---|---|---|---|
| 1778009127 | 15° C | 100% | 0 hPa | 0 mm | 0.89 m/s, 229° | - | - |
| 1778008827 | 15° C | 100% | 0 hPa | 0 mm | 1.34 m/s, 227° | - | - |
| 1778008527 | 15° C | 100% | 0 hPa | 0 mm | 0.89 m/s, 261° | - | - |
| 1778008227 | 15° C | 100% | 0 hPa | 0 mm | 0.89 m/s, 223° | - | - |
| 1778007936 | 15° C | 100% | 0 hPa | 0 mm | 1.79 m/s, 243° | - | - |
| 1778007627 | 15° C | 100% | 0 hPa | 0 mm | 0.45 m/s, 206° | - | - |
| 1778007327 | 15° C | 100% | 0 hPa | 0 mm | 0 m/s | - | - |
| 1778007027 | 15° C | 100% | 0 hPa | 0.25 mm | 0.45 m/s, 234° | - | - |
| 1778006427 | 15° C | 100% | 0 hPa | 0.76 mm | 0.45 m/s, 180° | - | - |
| 1778005826 | 15° C | 100% | 0 hPa | 1.27 mm | 1.34 m/s, 199° | - | - |
| 1778005527 | 15° C | 100% | 0 hPa | 1.52 mm | 0.89 m/s, 181° | - | - |
| 1778005227 | 15° C | 100% | 0 hPa | 1.78 mm | 0.45 m/s, 202° | - | - |
| 1778004927 | 15° C | 100% | 0 hPa | 2.03 mm | 0 m/s | - | - |
| 1778004627 | 15° C | 100% | 0 hPa | 2.29 mm | 0.89 m/s, 226° | - | - |
| 1778003727 | 15° C | 100% | 0 hPa | 3.3 mm | 2.68 m/s, 163° | - | - |
| 1778003427 | 15° C | 100% | 0 hPa | 3.56 mm | 0.89 m/s, 202° | - | - |
| 1778003127 | 15° C | 100% | 0 hPa | 3.3 mm | 2.68 m/s, 153° | - | - |
| 1778002827 | 15° C | 100% | 0 hPa | 3.81 mm | 1.34 m/s, 153° | - | - |
| 1778002527 | 15.56° C | 100% | 0 hPa | 3.81 mm | 2.68 m/s, 157° | - | - |
| 1778002226 | 15.56° C | 100% | 0 hPa | 3.81 mm | 0.89 m/s, 165° | - | - |
| 1778001927 | 15.56° C | 100% | 0 hPa | 4.32 mm | 0 m/s | - | - |
| 1778001327 | 15° C | 100% | 0 hPa | 3.81 mm | 0 m/s | - | - |
| 1778000727 | 15.56° C | 100% | 0 hPa | 3.3 mm | 0.45 m/s, 139° | - | - |
| 1778000427 | 15.56° C | 100% | 0 hPa | 3.05 mm | 0 m/s | - | - |
| 1778000127 | 15.56° C | 100% | 0 hPa | 2.54 mm | 0.45 m/s, 212° | - | - |
* Rain latest hour (hover to see other rain measurements)
** Current wind speed in m/s (hover to see current wind gust speed)